Notices

What's New in latest Release from April 7th, 2021:

- Updated Glossary, including Speed of Maximum Gust, and Total Hourly Precipitation

- Updated national and regional climate services offices contacts and prices information

- Addition of station inventory lists for 1981-2010, 1971-2000, and 1961-1990 Normals.

If you haven't already, please take our survey and provide feedback about our website: https://eccc.sondage-survey.ca/f/LanguageSelection.aspx?s=442ca660-fcf1-47c0-95a9-59707d6fd709

Hourly Data Report for December 22, 2016

CARBERRY CS
MANITOBA

49°54'20.900" N
99°21'26.800" W
383.50 m
5010547
71170
WZE

Download Data

Hourly Data (December 2016)
Hourly Data Report for December 22, 2016
TIME
LST
Temp Definition
°C
Dew Point Definition
°C
Rel Hum Definition
%
Precip. Amount Definition
mm

Wind Dir Definition
10's deg

Wind Spd Definition
km/h
Visibility Definition
km
Stn Press Definition
kPa
Hmdx Definition


Wind Chill Definition


Weather Definition


00:00 -4.2 -8.2 74 0.0 24 24   96.72   -11 LegendNANA
01:00 -3.9 -8.1 73 0.0 24 21   96.70   -10 LegendNANA
02:00 -4.0 -8.1 73 0.0 24 17   96.71   -10 LegendNANA
03:00 -4.3 -8.2 74 0.0 23 23   96.72   -11 LegendNANA
04:00 -4.9 -8.6 76 0.0 23 21   96.65   -12 LegendNANA
05:00 -5.1 -8.8 75 0.0 24 24   96.62   -12 LegendNANA
06:00 -5.4 -8.9 76 0.0 25 24   96.56   -13 LegendNANA
07:00 -5.8 -9.3 76 0.0 25 24   96.51   -13 LegendNANA
08:00 -6.2 -9.6 76 0.0 25 21   96.49   -13 LegendNANA
09:00 -5.9 -9.5 76 0.0 24 25   96.48   -13 LegendNANA
10:00 -6.0 -9.7 75 0.0 24 24   96.44   -13 LegendNANA
11:00 -4.2 -9.1 69 0.0 23 22   96.49   -11 LegendNANA
12:00 -2.8 -8.7 64 0.0 24 24   96.37   -9 LegendNANA
13:00 -2.3 -8.7 61 0.0 24 26   96.30   -9 LegendNANA
14:00 -1.7 -8.5 59 0.0 23 22   96.27   -8 LegendNANA
15:00 -1.5 -8.4 59 0.0 24 23   96.26   -8 LegendNANA
16:00 -2.2 -8.3 63 0.0 24 23   96.24   -8 LegendNANA
17:00 -3.0 -8.8 65 0.0 22 16   96.19   -8 LegendNANA
18:00 -3.5 -8.7 67 0.0 22 14   96.13   -9 LegendNANA
19:00 -2.7 -8.8 63 0.0 23 19   96.12   -8 LegendNANA
20:00 -4.5 -9.0 70 0.0 21 8   96.07   -8 LegendNANA
21:00 -4.3 -9.3 68 0.0 25 15   96.04   -10 LegendNANA
22:00 -4.3 -9.4 67 0.0 25 17   95.99   -10 LegendNANA
23:00 -4.3 -9.4 67 0.0 24 17   95.96   -10 LegendNANA

Notes on Data Quality.

Legend

  • E = Estimated
  • M = Missing
  • NA = Not Available*
  • [empty] = Indicates an unobserved value
Date modified: